Theta_e
323 323 322 321 322 322 322 321 323 323 320 320 318 314 309 305 305 305 305 304 304 304 303 303 304 304 304 304 304 304 304 304 305 305 306 306 309 309 311 314 317 317 318 319 320 320 321 321 321 321 321 321 321 321 321 321 321 320 320 320 320 320 320 319 319 319 319 319 320 320 321 321 322 322 323 323 324 324 326 326 327 328 329 329 330
323 322 321 320 321 322 322 323 322 320 318 316 314 310 306 305 305 304 303 304 302 303 303 303 302 303 303 304 303 302 305 303 304 304 305 306 307 309 309 312 315 318 318 318 319 319 320 320 320 321 320 320 320 321 320 320 319 318 319 319 319 319 318 318 318 317 318 318 318 319 319 319 320 320 321 322 322 323 323 325 325 326 326 327 328
323 321 320 320 319 320 320 320 319 317 315 313 311 308 305 304 304 302 303 302 302 302 302 302 302 302 303 303 303 303 303 303 303 304 303 305 306 309 310 309 312 316 317 318 318 318 318 318 318 319 319 320 320 319 319 318 318 317 318 318 318 318 318 317 316 317 317 317 317 318 318 319 319 320 320 321 321 321 322 323 323 324 325 325 325
322 321 319 319 318 318 318 317 316 314 313 311 308 306 305 305 306 305 305 303 302 301 302 301 301 301 302 303 302 302 301 303 303 302 304 305 305 307 310 310 309 311 314 317 318 318 317 318 318 318 318 319 318 317 317 317 317 317 317 317 317 317 317 316 316 316 316 316 316 316 316 317 318 318 319 320 320 320 320 321 321 322 323 323 324
321 320 318 318 317 317 316 316 315 313 311 310 308 306 305 305 305 305 303 303 302 301 303 301 300 300 300 300 301 302 302 303 303 302 302 303 303 305 308 310 309 307 308 310 314 316 317 317 318 318 318 316 316 317 316 316 316 316 316 316 316 316 315 315 315 315 315 316 316 315 316 316 317 317 318 318 319 319 319 320 320 321 321 321 322
321 319 317 316 316 315 314 314 314 312 310 308 305 304 303 304 303 302 302 301 300 301 300 300 300 299 300 300 301 301 302 302 301 302 302 303 303 305 305 309 309 308 306 305 307 311 313 314 315 316 317 317 316 316 316 316 316 315 315 315 315 314 314 314 315 314 314 315 315 314 314 315 316 316 317 317 317 317 318 318 318 319 319 320 320
320 317 315 314 313 313 313 312 312 311 307 307 305 303 302 302 301 299 300 300 300 299 299 299 299 298 299 299 300 301 301 301 302 302 301 303 302 303 304 304 307 307 307 304 303 303 308 311 313 314 314 315 315 315 315 315 314 315 314 314 314 313 314 313 313 313 313 314 313 313 313 314 314 315 315 315 316 316 317 317 317 317 318 319 319
319 317 315 313 312 311 311 311 311 308 307 306 304 301 301 302 300 300 298 299 299 298 299 299 299 298 299 298 299 299 300 300 300 300 301 301 302 302 302 302 304 304 303 303 301 300 303 306 308 310 311 313 314 314 313 314 314 314 314 313 312 313 312 312 312 312 313 312 312 312 312 313 313 313 314 314 314 315 315 315 316 316 317 317 317
318 316 314 313 311 310 310 310 309 307 306 304 302 302 301 302 299 301 300 299 299 299 298 299 299 299 299 300 300 299 300 300 299 300 302 301 300 300 301 301 299 299 301 299 298 298 299 302 303 304 306 309 312 313 313 313 313 312 313 312 312 311 311 311 311 311 311 311 311 311 311 312 312 313 313 313 313 313 313 313 314 314 315 315 316
316 314 313 312 311 309 309 308 307 306 304 303 302 301 302 301 299 301 300 300 298 297 297 298 300 299 298 298 299 298 299 299 299 298 298 299 300 300 300 298 298 300 298 300 299 296 296 297 300 300 300 305 310 311 311 312 311 312 312 312 311 311 310 310 310 310 310 310 310 310 310 310 311 311 311 311 311 312 312 312 312 313 313 314 314
315 313 312 310 309 308 307 307 305 304 303 302 301 301 302 301 300 299 300 300 299 299 298 299 298 298 298 297 298 299 299 299 298 297 298 299 299 299 300 298 298 298 298 298 297 297 297 297 297 297 297 301 305 309 311 312 312 311 311 311 311 310 310 309 309 309 309 309 308 309 309 309 309 309 309 310 310 310 310 311 311 311 312 313 313
314 313 312 309 308 306 305 306 304 303 302 301 299 299 300 301 300 300 299 299 300 299 299 298 297 297 296 296 297 297 297 297 297 298 299 298 298 298 297 298 297 297 297 298 296 297 296 297 296 295 295 298 301 303 306 307 310 310 310 311 312 310 309 310 309 308 307 307 307 308 308 308 308 309 309 309 310 310 310 310 310 311 311 312 312
313 312 310 308 307 306 305 304 303 302 302 301 301 301 301 301 300 299 299 298 298 299 299 298 295 293 294 295 295 295 295 296 295 297 297 297 296 295 296 296 296 296 296 296 296 296 296 297 296 296 294 296 298 300 302 302 305 310 312 310 313 312 311 308 307 306 305 306 306 306 306 307 307 308 308 308 309 309 310 310 310 310 310 311 311
311 311 310 309 307 305 304 303 302 301 301 302 302 300 301 301 300 297 299 297 297 299 298 296 293 292 291 292 292 293 294 294 294 294 296 296 296 295 296 295 295 295 295 295 295 295 295 295 296 295 296 296 297 300 301 299 298 304 308 310 310 309 307 306 305 305 305 304 305 305 305 305 306 307 307 307 307 308 308 309 310 310 311 311 312
310 310 309 308 307 305 303 302 301 301 300 300 300 300 300 300 299 296 295 297 297 299 297 296 293 295 295 292 290 290 292 291 293 293 294 295 295 295 295 295 294 295 294 294 294 294 294 295 295 295 295 296 296 297 295 294 294 296 300 302 306 307 307 306 305 305 304 303 304 304 304 304 305 305 306 306 306 307 307 308 309 309 310 310 311
309 309 308 307 306 304 303 302 301 300 300 299 300 300 299 299 299 298 297 293 295 295 298 296 296 295 290 291 292 291 289 289 290 292 294 294 294 294 294 294 294 295 294 293 293 293 293 294 294 294 295 295 295 296 296 292 293 293 294 296 298 302 304 305 304 304 303 303 303 304 304 304 304 305 305 305 306 306 307 308 308 307 308 309 309
309 307 306 306 306 304 303 301 300 300 299 299 299 300 299 299 299 297 296 295 293 295 296 297 297 299 296 292 293 290 290 295 290 290 292 292 293 293 294 293 292 292 292 293 294 293 293 293 293 294 294 295 295 296 294 293 293 292 292 292 295 297 300 303 303 303 302 302 302 303 304 304 304 304 304 304 305 305 306 307 307 307 308 308 308
308 307 306 305 305 304 303 301 300 299 299 298 299 300 299 299 298 298 297 297 296 294 294 295 297 300 303 302 301 293 293 293 291 287 290 292 292 293 293 293 292 292 292 293 292 292 292 292 293 293 293 294 294 294 294 295 296 294 292 293 295 296 296 299 301 302 301 301 301 302 303 303 302 302 303 303 304 305 306 306 306 306 307 307 307
307 307 306 304 304 304 303 301 300 299 299 298 298 299 299 299 299 297 297 297 298 293 293 293 295 297 300 301 298 296 299 293 290 292 286 289 291 291 291 293 292 292 292 292 292 292 292 292 292 292 293 293 293 294 295 295 293 292 292 293 294 295 296 295 296 299 300 300 300 300 301 301 302 302 302 301 303 304 304 305 305 305 305 306 306
305 306 305 304 303 303 302 301 300 300 299 297 297 299 300 300 299 298 298 296 297 295 294 294 291 292 296 296 296 297 296 299 304 295 294 287 287 291 292 292 292 292 292 292 292 292 292 291 292 292 292 293 293 293 294 292 290 290 291 292 293 294 295 295 294 295 296 297 298 299 300 300 300 300 300 301 302 303 304 305 305 304 305 305 306
304 304 304 304 302 302 302 301 300 299 298 298 298 299 299 299 298 297 297 296 296 296 296 294 293 292 293 293 295 295 295 297 300 300 297 292 290 288 288 291 291 291 291 292 293 292 292 291 292 292 291 292 292 293 293 292 292 291 290 291 292 293 293 294 293 294 294 294 295 297 298 299 299 299 299 300 301 302 303 303 303 303 304 305 305
302 303 303 303 302 301 301 301 300 299 298 298 298 298 299 299 298 297 297 296 296 296 296 296 294 293 294 294 292 293 293 293 294 294 295 299 294 288 290 287 286 289 291 291 292 292 292 292 291 291 291 291 292 292 293 293 292 291 289 290 291 291 292 292 293 293 293 293 293 294 296 296 297 297 298 299 300 301 302 302 302 302 303 303 304
301 301 302 302 302 301 301 301 300 299 298 298 297 297 298 299 299 298 296 296 296 296 296 297 296 294 294 293 293 293 291 290 290 291 292 291 291 292 291 290 290 289 289 291 292 292 291 291 290 290 291 291 291 292 292 292 292 291 289 290 290 290 291 291 292 292 292 293 293 293 293 293 294 295 296 298 299 300 301 301 301 301 302 302 302
300 300 300 301 301 300 300 300 299 299 298 298 297 297 297 298 298 297 296 297 297 296 296 296 297 295 295 295 294 294 294 293 294 294 293 291 292 291 292 292 291 292 292 291 292 291 290 290 290 290 291 291 291 291 292 292 290 288 287 288 289 289 290 291 291 291 291 291 291 292 292 292 292 293 294 296 298 299 299 300 300 300 301 301 301
299 298 299 300 300 299 299 299 298 299 299 298 297 297 297 297 297 297 296 295 295 295 295 295 296 295 294 296 295 295 294 295 295 295 295 294 293 290 293 293 289 289 290 290 288 290 290 289 290 290 290 290 291 291 291 291 289 287 288 286 288 287 287 288 289 290 290 290 290 290 291 291 291 292 294 295 296 297 297 298 299 299 300 300 300
300 299 299 300 299 299 299 299 299 299 298 298 298 297 297 296 296 296 295 295 295 295 294 294 295 296 296 296 294 294 294 295 295 296 294 293 291 291 291 290 291 289 288 287 289 286 288 289 290 290 290 290 290 291 291 291 288 288 288 287 286 286 286 287 289 289 289 290 290 290 290 290 291 291 292 294 295 295 296 297 298 298 298 298 299
299 300 301 300 299 299 299 298 298 298 298 298 298 297 297 296 295 295 295 295 294 294 293 293 293 294 295 295 295 294 295 295 295 295 296 295 293 292 291 287 288 288 285 286 287 286 286 288 290 289 290 290 290 290 290 290 288 287 285 285 286 286 285 286 288 289 289 289 289 289 289 289 289 291 291 292 293 294 295 296 296 297 297 297 296
299 299 300 300 299 299 298 298 298 298 298 297 297 296 296 295 294 294 294 295 293 293 293 293 293 293 294 294 294 294 294 295 295 295 296 296 295 295 293 290 287 284 285 284 285 285 289 286 288 289 289 289 290 289 290 289 286 287 285 286 287 285 286 286 286 288 288 289 289 289 289 289 290 290 291 291 291 292 293 293 294 294 293 293 294
297 298 299 299 299 299 298 297 297 297 297 297 296 295 295 294 293 293 292 293 293 293 293 292 292 293 293 293 293 293 293 294 294 295 295 295 295 294 294 292 290 287 284 283 284 284 286 288 285 287 289 289 289 290 288 288 287 284 284 286 286 286 286 285 286 287 288 289 289 289 288 289 289 290 290 291 291 291 292 292 292 292 293 293 293
296 297 297 297 298 297 297 296 296 296 296 296 295 295 294 294 293 293 293 293 292 292 292 292 292 292 292 292 292 292 292 293 293 293 293 294 293 293 294 293 293 289 288 285 285 286 286 288 287 286 287 288 289 288 288 287 287 285 286 286 286 285 286 285 285 286 287 288 288 288 288 289 289 289 290 290 290 291 292 292 292 292 292 292 293
294 294 295 295 295 296 296 295 295 295 295 295 295 294 294 293 293 292 292 292 291 291 291 291 291 291 290 290 291 291 292 292 292 292 292 292 292 292 292 293 292 291 290 289 286 287 289 286 287 287 286 287 288 287 287 287 286 286 286 286 285 286 284 283 284 285 286 287 287 287 288 288 289 289 289 290 290 290 291 291 291 291 291 291 292
292 292 293 293 294 294 294 295 294 294 294 294 294 294 293 292 292 291 291 291 290 290 290 290 291 290 290 289 290 290 291 291 291 291 291 291 291 291 291 291 291 291 290 289 288 287 288 287 287 287 287 286 286 285 285 285 284 286 285 285 285 284 282 282 283 285 285 286 287 287 288 288 289 289 289 289 289 290 290 290 290 290 290 291 292
292 291 291 292 292 292 293 293 293 293 293 293 293 293 292 291 291 291 291 290 289 289 289 289 289 289 289 289 289 289 290 289 290 290 290 290 290 290 290 290 290 290 290 289 287 286 284 287 287 286 286 286 284 285 284 284 282 282 284 284 284 283 282 282 283 285 285 285 286 287 287 288 289 289 289 289 289 289 289 289 289 290 290 291 291
291 291 291 291 292 292 292 292 292 292 292 292 292 292 291 291 290 291 291 290 289 289 289 288 289 289 289 288 288 288 289 289 289 289 289 289 289 289 289 289 289 289 290 289 288 286 282 284 285 285 285 285 283 285 283 283 282 282 281 282 283 282 282 282 282 284 285 285 285 286 287 288 288 289 290 289 289 288 289 289 289 289 290 290 290
291 291 290 290 290 290 290 291 291 291 292 292 292 291 291 290 290 290 290 289 289 288 288 288 288 288 288 288 288 288 289 288 288 288 289 288 289 288 288 288 288 288 288 289 287 286 284 282 284 283 283 284 283 283 284 284 283 282 281 281 281 282 282 282 282 283 285 286 286 286 286 287 288 289 289 289 288 288 288 288 289 289 289 289 290
288 289 290 290 290 290 289 289 290 290 290 291 291 291 290 289 289 289 289 289 289 288 288 288 288 288 287 287 287 287 287 287 287 287 287 288 287 287 287 287 287 287 287 287 287 286 285 282 283 282 283 282 282 284 284 284 282 282 282 282 282 282 282 282 282 282 284 286 286 286 286 287 288 288 288 288 288 287 288 288 288 288 288 288 288
288 288 289 289 289 289 289 289 289 289 289 290 290 290 290 289 289 289 289 289 288 288 288 288 288 288 287 287 287 287 287 286 286 286 287 286 287 287 287 287 287 287 286 286 286 286 284 283 282 283 283 282 283 283 283 281 281 281 281 280 281 281 281 282 282 283 284 286 286 285 286 286 287 287 287 287 287 287 287 287 287 287 287 287 287
287 287 288 288 288 288 288 288 288 288 289 289 289 289 289 289 289 289 289 288 288 288 288 288 288 288 288 287 287 287 287 286 286 286 286 286 286 286 286 286 286 286 286 285 285 285 284 284 282 281 281 281 281 280 281 281 279 279 279 279 280 281 280 280 281 282 283 283 283 283 284 285 286 286 286 286 286 287 287 287 287 287 286 286 286
285 286 286 286 287 287 287 287 287 287 287 288 288 289 289 289 289 288 288 288 288 288 287 287 287 287 287 287 287 287 287 287 286 286 286 286 286 285 286 286 286 285 285 284 284 284 284 283 281 281 280 281 280 278 280 281 280 279 278 278 278 279 280 280 280 282 282 282 283 284 283 283 283 283 285 285 286 286 286 286 286 286 285 285 285
285 285 285 285 285 286 286 287 287 287 287 286 287 287 288 288 288 288 287 287 287 287 287 287 287 287 287 287 287 287 287 287 287 287 286 286 286 285 286 286 285 285 284 284 283 283 283 283 281 279 279 279 279 280 280 279 278 278 279 279 277 278 278 280 280 280 281 281 280 281 283 284 284 285 285 285 285 285 285 284 284 284 284 284 284
286 285 285 285 284 285 285 286 286 287 286 286 286 286 286 286 287 287 287 287 286 286 286 286 287 287 287 287 287 287 287 287 287 287 287 287 286 285 285 285 285 284 284 284 283 283 282 282 281 280 279 278 278 278 277 277 276 277 279 279 278 279 279 279 280 281 281 280 280 281 280 280 280 280 281 281 281 282 282 283 282 283 283 283 284
285 285 285 285 284 284 284 284 285 286 286 287 287 288 288 286 286 286 286 286 286 286 286 286 286 286 286 286 287 286 286 286 286 287 288 288 288 286 286 285 285 284 284 284 283 283 282 281 281 279 278 277 278 278 277 277 278 279 279 279 278 280 280 279 279 280 282 280 280 279 280 282 280 280 280 279 280 281 280 280 280 282 282 283 284
283 283 284 284 285 285 285 284 284 285 285 286 288 290 290 290 288 286 286 286 286 286 286 285 285 285 286 286 286 286 286 285 286 287 288 288 288 288 288 287 287 285 284 283 283 283 282 282 282 281 279 279 278 279 278 278 278 278 278 279 279 279 278 277 275 278 281 280 279 279 279 281 280 278 278 279 279 280 280 280 282 283 283 283 284
282 282 282 282 283 284 284 285 285 285 285 286 288 289 290 290 289 287 286 286 285 285 285 285 285 285 285 285 286 286 286 286 285 285 286 287 288 288 288 288 288 288 288 285 284 283 282 282 281 281 280 279 279 279 279 279 278 279 279 279 278 278 277 277 277 276 279 281 278 278 278 280 279 278 277 278 279 279 280 281 283 283 284 284 285
281 280 280 281 282 283 283 284 284 284 284 286 287 288 288 289 289 289 287 286 286 285 285 285 285 285 285 285 285 285 286 285 285 285 285 284 286 287 287 287 287 288 288 289 288 285 284 283 282 281 281 281 279 279 279 280 280 279 279 278 278 278 279 278 278 278 278 280 278 277 276 278 277 276 276 278 279 279 280 282 283 283 283 284 284
279 279 279 279 280 282 283 283 283 283 284 285 286 287 287 288 288 288 286 286 286 286 286 285 285 285 285 285 284 284 285 285 285 284 284 284 284 284 285 285 285 285 287 288 287 287 286 284 283 282 283 282 281 281 281 282 280 279 279 278 278 278 278 278 279 278 279 280 276 276 274 276 276 276 275 277 279 279 279 280 281 282 283 284 284
277 277 277 277 279 280 281 282 282 282 283 285 286 286 287 287 288 288 286 286 286 286 286 286 286 285 285 285 285 284 284 284 285 285 284 283 283 283 283 283 283 283 283 284 284 284 284 284 283 283 284 283 282 282 281 282 281 281 281 279 279 279 279 278 277 278 277 278 276 275 271 275 276 275 275 277 278 277 278 279 281 281 282 283 283
276 276 276 277 278 278 279 280 281 281 282 284 285 286 287 287 287 286 285 285 285 285 285 286 286 286 286 285 285 285 284 284 285 287 286 284 283 282 282 282 282 282 282 284 286 286 284 283 282 283 282 282 285 282 282 282 281 281 281 280 279 277 276 274 273 275 273 277 276 274 271 273 276 274 275 276 277 276 277 277 279 281 281 282 283
274 274 274 275 276 277 278 279 279 280 281 283 285 285 286 286 286 284 284 284 284 284 285 285 286 286 286 285 285 284 284 284 285 287 288 286 282 281 281 281 281 281 281 282 285 286 286 285 284 285 285 286 286 286 286 286 283 281 278 277 275 276 274 273 273 273 273 275 275 275 273 272 275 274 274 275 275 275 276 276 278 279 280 281 282
272 272 273 274 275 276 277 277 278 279 279 281 284 284 285 285 285 283 283 283 283 284 284 285 286 286 286 285 285 285 284 284 286 287 288 286 282 281 281 280 280 280 280 281 281 283 285 284 284 284 285 285 286 286 286 286 285 282 278 275 276 276 274 275 273 273 274 274 274 275 272 271 274 274 273 273 274 274 275 276 276 277 279 279 280
271 272 272 272 273 274 274 275 277 277 278 280 283 283 284 284 284 283 283 282 282 282 283 283 285 285 285 286 285 285 285 285 286 287 287 286 282 281 281 280 279 279 279 280 280 280 280 280 280 281 282 283 283 283 284 285 284 282 279 278 277 275 274 274 273 272 270 272 274 275 270 272 272 273 273 270 268 273 276 276 276 277 277 277 278
Wind_Speed
9 9 9 9 8 9 9 9 8 8 9 7 7 7 6 6 6 5 5 5 4 4 3 3 3 3 3 3 2 2 2 1 2 1 1 1 3 4 7 9 8 4 3 1 0 1 1 1 1 2 2 2 3 3 4 4 5 5 4 3 4 5 6 7 6 6 6 6 6 7 8 7 8 8 8 8 8 8 8 9 9 10 10 11 11
9 9 9 9 9 9 8 8 8 8 8 7 7 6 6 5 5 5 5 5 5 4 4 4 3 3 3 3 2 2 1 1 1 2 1 1 3 4 6 7 9 7 3 1 1 2 2 2 3 4 5 4 3 4 4 4 3 3 3 3 4 4 5 6 5 5 5 5 6 6 6 7 7 7 8 8 8 8 8 9 10 10 11 11 12
9 9 9 9 8 9 8 8 8 7 7 6 6 6 5 5 6 6 5 5 4 4 4 4 3 3 3 3 2 1 1 1 1 1 2 1 2 3 4 7 8 9 5 6 5 3 2 1 1 1 3 4 5 4 3 2 2 2 2 3 3 4 6 5 4 4 5 6 6 6 6 7 7 7 7 8 8 9 8 9 10 10 11 11 12
10 10 9 9 9 9 8 8 8 7 7 6 6 5 5 4 5 4 5 4 5 4 4 4 4 3 3 3 2 2 2 2 2 2 1 2 2 3 3 4 8 11 12 9 6 6 3 3 2 1 3 3 2 1 1 1 2 2 0 1 3 4 5 3 3 4 5 6 5 5 6 6 6 7 7 8 8 9 9 9 9 10 11 11 12
9 10 9 9 9 8 8 8 7 7 7 7 7 5 5 5 5 4 4 4 5 4 3 4 4 4 4 3 3 2 2 2 2 2 2 2 2 2 3 4 5 9 11 12 13 9 8 6 5 5 4 1 3 3 3 2 2 2 2 2 2 3 3 3 3 4 5 5 5 5 6 6 6 7 8 7 8 9 9 9 10 10 11 11 11
9 10 9 8 8 8 9 8 7 7 7 7 7 6 6 6 6 5 5 5 5 5 5 4 4 4 3 3 2 2 2 1 2 2 2 2 2 2 3 4 4 4 4 10 13 13 11 9 7 7 8 7 4 3 3 3 2 2 3 3 2 2 2 2 3 4 5 6 6 5 6 6 7 7 7 7 8 8 9 9 10 10 10 10 11
10 9 9 9 8 8 9 7 7 7 7 6 7 6 5 6 6 6 5 4 4 4 5 4 4 4 3 3 2 2 2 2 2 2 2 2 2 2 2 3 2 3 3 3 7 11 12 11 11 10 9 8 5 3 2 2 2 1 2 3 2 2 3 3 4 4 5 6 6 6 6 6 7 7 7 7 8 8 9 10 9 10 10 9 9
10 9 9 9 8 8 8 7 8 7 6 7 7 7 7 6 6 6 6 5 6 5 4 4 4 4 3 3 2 3 2 2 3 3 2 3 2 2 2 2 2 2 2 3 4 6 11 11 12 13 11 10 8 5 1 2 3 3 4 4 2 2 3 3 3 4 5 5 6 6 6 6 7 7 7 8 8 9 9 9 10 10 11 10 10
10 9 8 9 8 8 8 8 8 8 7 7 7 6 7 6 7 6 5 6 6 6 5 5 4 4 3 3 2 2 2 2 3 3 2 2 3 3 2 2 2 2 1 2 3 4 7 10 11 13 13 10 9 7 4 2 3 3 3 4 4 3 3 3 4 4 5 5 5 5 6 7 7 8 8 8 8 8 8 9 9 9 9 9 9
10 9 8 8 8 7 7 8 8 7 7 7 7 7 7 7 7 6 7 6 6 7 6 6 4 4 4 3 3 2 2 2 2 3 4 3 3 3 3 3 3 2 2 1 2 3 4 6 9 11 12 10 9 8 5 4 0 3 5 4 4 4 4 4 4 5 5 5 5 6 6 6 6 6 7 7 7 7 8 8 8 8 8 8 9
10 9 9 8 8 7 7 8 8 7 7 7 7 7 7 8 8 8 6 6 6 6 6 5 5 4 4 4 2 1 2 2 2 3 3 3 3 3 2 3 3 2 2 2 2 2 2 2 2 3 4 9 9 10 11 12 10 3 5 6 5 3 4 4 4 5 5 5 5 5 6 5 6 6 6 7 7 7 7 7 7 7 7 8 8
10 9 9 8 8 7 7 7 7 7 7 8 8 8 9 10 8 9 8 5 4 6 6 7 6 5 4 3 2 2 1 2 3 3 2 3 3 3 3 3 3 3 2 2 2 2 2 1 2 3 4 5 7 8 11 13 14 4 4 6 7 4 5 7 5 4 4 4 4 5 5 6 6 6 7 7 7 8 7 7 7 7 7 7 8
9 9 9 8 7 7 7 7 7 8 8 9 8 8 8 8 7 7 9 7 6 6 7 7 7 5 3 3 3 2 2 2 4 3 3 3 4 4 3 3 3 3 3 2 3 2 2 2 1 2 3 3 3 4 8 12 16 14 13 1 8 8 6 3 3 3 3 4 4 4 5 6 6 6 7 7 8 8 8 7 7 7 8 8 8
9 9 9 9 9 8 7 8 8 8 8 8 8 7 9 8 7 7 6 8 7 8 8 8 5 6 5 4 3 3 3 4 4 5 4 4 4 4 4 4 4 4 3 3 3 3 2 2 2 2 2 3 3 3 3 5 9 14 15 13 4 5 3 2 0 2 3 3 4 3 4 4 5 6 6 7 7 8 7 7 8 8 9 9 9
8 9 9 10 10 9 8 8 9 8 8 9 9 9 9 10 10 9 8 6 5 6 9 9 6 6 5 4 4 4 3 4 5 6 6 5 4 4 5 4 5 4 4 4 4 3 3 2 3 3 3 2 2 3 5 6 7 12 15 15 13 6 3 2 2 2 3 2 3 3 3 4 5 5 6 7 7 7 7 8 8 8 9 9 10
8 8 7 8 10 10 8 9 10 10 9 10 10 11 10 10 10 10 9 8 7 8 9 10 6 9 7 6 4 4 3 7 7 6 7 6 6 6 5 5 5 4 3 4 4 4 4 4 4 3 3 3 4 5 5 5 8 11 11 11 10 8 4 3 2 3 2 2 3 3 3 4 5 6 6 6 7 7 7 8 8 8 9 9 10
8 10 9 9 9 9 8 8 9 10 9 9 10 11 11 11 13 11 12 10 9 7 8 10 9 8 5 5 2 3 6 1 8 4 6 6 7 6 6 6 6 5 4 4 3 4 4 4 4 4 3 4 4 4 6 6 5 6 7 7 7 7 6 4 3 2 2 2 2 2 3 4 5 5 6 6 6 6 7 7 8 8 9 9 9
8 9 9 9 10 10 9 8 8 8 9 10 9 9 11 12 13 12 13 12 10 8 8 9 10 8 4 2 1 2 3 6 7 3 5 5 5 7 6 7 6 5 5 5 5 4 5 5 5 5 4 4 4 4 5 6 6 5 5 5 7 7 6 5 3 3 2 3 2 1 2 3 4 4 6 5 5 6 6 7 7 8 8 8 8
9 9 9 9 10 9 9 9 8 8 9 10 10 11 10 12 11 12 12 12 10 10 12 10 6 6 7 4 2 3 3 7 5 6 4 4 6 7 7 7 6 6 6 6 6 5 5 5 5 5 5 5 5 5 5 4 7 8 8 7 7 7 7 6 4 3 3 2 2 1 1 2 3 4 4 4 5 5 5 5 6 6 6 7 7
8 8 9 10 10 10 10 9 9 9 9 10 10 9 7 9 11 13 10 12 13 11 11 10 13 10 10 4 3 1 3 4 3 4 3 6 6 5 6 7 7 7 7 7 7 6 6 6 6 6 5 5 5 5 5 6 6 7 5 7 7 7 7 7 6 4 3 3 2 1 1 1 1 2 3 4 3 4 5 6 6 6 6 7 7
8 8 8 9 9 10 10 10 10 10 9 9 10 9 10 10 11 12 12 11 11 11 10 11 12 10 10 7 6 5 4 4 3 1 3 4 5 8 7 6 6 7 8 7 6 6 6 6 6 6 6 6 5 5 6 6 7 6 6 8 7 7 6 7 6 5 4 3 3 1 1 2 2 2 2 2 2 3 4 4 4 5 6 6 6
7 8 8 9 10 10 9 10 10 10 9 10 11 11 10 11 13 13 13 12 10 12 12 10 11 12 11 10 10 7 5 4 4 4 4 3 2 8 8 10 8 8 8 9 8 7 6 6 6 6 5 6 5 5 5 6 5 6 6 8 6 6 5 5 5 5 4 4 3 1 1 1 2 2 1 2 2 2 3 3 3 4 5 5 5
5 7 9 9 9 9 9 10 9 9 9 9 11 11 9 9 10 12 13 13 11 11 11 10 9 12 11 11 12 13 14 12 11 8 7 5 4 5 7 9 8 5 9 9 8 7 7 6 7 7 6 6 6 6 5 5 6 8 11 8 6 5 5 4 4 4 3 3 3 2 1 1 1 2 1 1 1 1 2 2 3 3 4 5 5
6 6 7 9 8 8 9 9 9 10 10 9 9 10 8 8 8 9 11 13 12 11 11 12 11 9 13 10 12 12 11 11 10 9 10 9 7 6 6 6 4 5 4 7 7 7 7 7 7 7 7 7 7 6 7 6 6 13 8 8 5 5 4 3 3 3 2 2 1 1 0 1 1 1 2 2 1 1 1 2 2 3 3 4 5
5 6 7 8 8 8 9 9 9 10 10 9 9 11 10 9 10 11 13 13 14 14 12 14 13 11 11 12 10 11 12 11 10 9 8 8 7 7 4 8 5 4 3 6 4 5 6 7 7 7 8 7 7 7 7 7 7 12 11 8 8 5 5 3 3 3 3 2 1 1 1 1 1 1 2 2 2 1 2 2 2 2 3 4 5
7 7 7 7 8 8 8 9 9 9 9 10 10 10 10 10 10 11 13 13 13 15 14 13 14 13 10 9 11 11 11 10 11 9 9 8 8 9 4 3 3 4 3 4 5 4 6 7 7 7 7 7 7 7 7 7 8 15 12 7 9 8 6 4 3 4 4 3 3 2 2 2 2 2 2 2 2 2 3 3 2 3 4 4 5
8 8 7 7 7 8 8 9 9 9 9 9 8 10 10 10 10 11 10 11 12 13 13 14 14 15 14 12 11 11 10 10 10 11 9 10 9 7 7 7 2 4 4 4 4 10 5 6 8 8 8 8 7 7 7 7 9 15 9 5 6 11 7 5 4 4 4 4 4 4 4 4 3 3 2 2 3 3 3 4 4 4 4 5 5
9 8 8 7 6 7 8 9 9 9 9 9 9 9 9 10 10 10 12 9 11 13 13 13 15 15 15 14 11 11 10 10 10 10 9 9 8 7 7 9 9 5 5 5 6 7 7 6 6 8 8 8 8 7 8 8 7 15 10 5 5 7 9 6 5 5 5 5 5 5 5 5 5 5 4 3 3 3 4 4 5 5 5 5 6
8 8 9 8 7 7 7 8 9 9 9 9 9 8 9 9 10 11 11 10 11 13 12 13 13 13 13 15 14 12 11 10 9 9 8 8 7 7 8 10 8 9 6 8 9 7 8 9 7 9 9 9 8 7 8 7 10 11 7 5 4 3 9 8 5 5 7 7 6 6 6 7 6 6 5 5 4 4 5 5 5 5 6 6 6
8 8 8 9 8 8 6 6 6 7 8 8 8 8 8 9 10 11 11 9 11 11 12 12 13 12 13 13 12 12 11 10 11 11 10 10 8 8 8 8 8 11 8 8 7 9 7 9 7 6 10 9 8 7 7 6 13 11 7 6 4 4 8 8 5 6 8 8 7 7 8 8 7 7 6 6 5 5 5 6 6 6 7 7 7
7 7 7 7 7 7 6 7 7 7 7 8 8 8 8 9 9 9 10 10 11 12 12 12 12 12 13 15 14 14 12 12 11 11 11 10 9 8 8 8 9 10 10 6 5 5 9 10 8 7 10 9 8 7 6 5 10 10 6 4 4 6 9 5 6 8 9 9 8 8 8 8 8 8 7 6 5 5 6 6 6 7 7 7 7
6 6 6 6 7 8 7 7 7 7 7 8 8 8 8 9 9 9 9 11 12 13 11 11 10 12 14 15 15 14 13 12 12 11 11 11 10 9 9 9 9 10 8 8 9 3 3 6 8 7 11 10 9 8 8 5 7 10 5 4 5 9 4 3 8 11 10 9 9 9 9 9 9 8 7 6 6 6 6 6 7 7 7 8 8
7 7 7 7 7 7 7 7 7 7 7 7 7 8 9 9 9 10 10 11 13 12 12 13 11 12 14 14 15 15 13 13 13 11 12 12 11 10 10 9 10 9 9 10 10 5 1 2 6 7 9 10 8 8 9 7 7 6 5 3 5 4 4 3 3 9 11 10 10 10 10 10 9 9 8 6 6 6 6 6 7 8 8 8 8
7 7 7 6 7 7 7 7 7 7 8 8 8 7 8 9 10 8 9 11 12 13 12 14 13 10 12 15 16 14 12 15 14 14 13 12 12 13 12 11 11 11 10 9 10 7 7 4 5 5 7 8 8 8 10 10 8 7 7 5 3 4 4 3 4 4 12 11 11 10 10 10 10 9 8 7 6 6 6 7 7 8 9 9 9
9 8 8 8 8 7 8 8 8 8 7 8 7 8 9 9 10 9 9 11 12 12 13 14 14 12 13 15 16 13 10 13 15 15 13 14 13 14 15 12 13 12 10 11 9 9 9 8 7 8 8 8 9 10 9 8 7 8 8 7 5 4 3 4 4 3 9 13 12 11 12 12 11 11 10 8 8 7 7 8 8 8 9 9 9
9 8 9 9 8 8 8 8 8 8 8 8 8 8 9 9 10 11 10 11 12 13 13 13 13 13 14 15 15 14 12 14 15 14 14 14 14 14 14 13 13 13 10 10 11 10 6 10 8 9 9 9 8 7 7 6 8 8 7 5 4 4 4 4 4 3 6 12 13 13 13 13 13 12 11 10 9 8 8 9 8 8 9 9 9
8 9 8 8 8 8 7 8 9 9 9 9 9 9 8 8 10 11 11 11 11 13 14 14 13 14 14 15 16 13 13 15 16 15 15 16 14 14 14 14 13 12 9 10 11 10 7 10 8 6 7 6 5 7 8 9 7 6 5 6 6 6 5 4 4 4 7 11 13 13 13 13 13 12 12 11 10 9 9 9 9 9 9 9 9
8 7 8 8 8 9 9 9 9 10 9 9 9 10 10 9 9 10 10 11 12 12 12 13 13 13 14 15 15 13 14 16 17 16 14 16 15 14 15 14 13 12 12 11 11 11 10 8 11 9 8 10 8 7 9 9 9 8 6 5 4 5 5 5 5 4 3 3 3 6 10 12 13 14 12 11 11 10 10 10 10 9 9 9 9
7 7 7 7 7 8 9 8 8 9 9 9 9 9 9 10 11 11 10 11 12 11 12 12 12 14 15 15 15 14 16 17 17 17 16 15 13 15 16 15 13 12 13 12 11 11 11 8 8 9 10 8 9 9 8 8 7 7 9 8 7 6 5 5 5 5 4 4 7 10 9 8 10 9 11 13 12 12 11 11 10 10 9 9 9
6 7 7 8 8 7 8 8 8 8 8 8 9 9 9 10 10 10 11 11 12 13 13 13 13 14 15 15 15 15 16 16 17 16 16 15 13 15 15 13 13 13 13 12 11 11 11 9 10 10 9 10 8 5 6 8 7 6 7 7 9 8 8 7 7 6 6 5 5 5 7 8 8 10 12 12 13 13 12 10 10 9 10 9 8
8 8 7 7 8 8 8 8 8 7 7 7 6 7 8 10 10 10 11 11 12 12 13 13 14 14 14 14 14 15 16 19 21 19 18 16 13 14 15 13 12 12 12 11 12 11 11 10 8 8 9 10 10 11 11 10 14 13 10 9 6 6 6 6 6 6 6 7 6 6 7 7 6 6 5 6 7 9 8 10 7 9 11 10 10
9 9 10 10 9 8 8 8 7 6 6 6 8 14 13 10 9 9 10 11 11 12 13 13 14 14 14 14 14 19 19 20 22 23 22 21 21 18 14 13 13 13 13 13 13 13 13 13 12 11 11 12 13 13 13 12 9 6 9 9 9 8 7 6 5 6 6 7 6 7 6 7 7 6 5 5 4 4 3 4 4 6 7 9 9
12 12 11 10 10 9 9 8 8 7 6 6 11 12 14 17 13 10 10 11 11 12 13 14 14 14 14 14 14 15 17 18 19 23 22 23 24 25 24 20 17 16 15 15 15 14 14 15 13 12 14 14 14 13 13 12 11 12 11 11 10 8 9 10 9 5 7 8 6 5 6 6 6 5 5 6 5 4 5 4 7 8 9 10 10
10 10 13 13 12 10 9 10 9 8 7 9 12 13 14 15 14 11 9 10 11 12 13 14 13 13 14 14 13 11 12 14 14 14 19 24 25 24 24 23 22 24 22 18 17 14 15 15 14 15 14 15 14 13 12 12 12 11 10 11 12 13 11 11 9 9 7 11 9 8 7 6 7 6 5 6 6 5 5 7 9 9 10 11 11
11 13 13 13 14 14 12 11 10 10 10 10 12 15 15 15 16 14 9 10 11 12 13 14 14 14 13 13 13 12 11 16 14 13 14 15 20 25 24 24 24 26 27 28 24 18 15 16 16 17 16 15 14 14 15 15 13 14 12 11 12 12 11 11 9 5 8 11 8 7 7 7 8 6 6 6 6 5 5 7 9 9 9 10 10
10 10 11 14 14 13 12 12 12 11 11 13 14 15 16 17 17 15 9 11 11 12 14 14 14 14 14 14 13 13 13 11 11 13 13 13 12 14 16 16 16 20 24 27 27 26 20 16 17 18 16 13 15 15 15 16 17 15 14 13 13 12 12 12 7 8 8 8 10 7 4 6 6 6 5 4 4 4 4 6 8 8 9 10 11
10 11 12 13 12 13 12 12 12 13 12 17 18 18 17 17 17 15 9 10 10 11 13 14 15 15 16 14 15 15 13 12 12 14 13 12 10 11 13 15 16 16 16 17 19 18 16 13 13 14 11 13 14 10 11 12 15 13 14 15 15 12 7 7 7 6 6 5 4 5 6 4 6 6 5 4 3 3 3 5 6 6 8 10 10
9 9 11 12 13 14 14 14 13 14 14 18 17 18 18 18 18 10 9 10 10 11 12 13 14 14 14 15 15 15 14 13 15 21 19 13 10 12 15 15 15 14 15 15 14 15 16 15 15 14 9 10 12 12 13 12 11 8 8 8 8 8 10 8 8 6 5 6 7 5 3 4 5 5 4 3 2 3 3 2 4 6 7 9 10
11 11 12 13 13 13 14 14 14 14 14 17 19 18 18 19 13 8 9 9 10 12 13 13 13 13 14 14 15 15 15 14 16 17 18 19 12 14 15 15 14 13 14 13 12 13 12 9 11 11 10 13 16 18 20 20 14 13 12 11 12 11 11 11 8 7 7 7 7 7 4 3 4 4 3 3 2 2 2 2 2 5 7 8 9
13 14 12 13 14 13 14 14 14 14 16 18 22 20 21 20 15 10 9 10 11 12 12 13 12 12 15 21 19 16 16 15 16 16 20 18 15 15 15 15 15 16 15 11 9 10 11 11 12 13 14 15 17 19 21 22 23 19 16 17 15 12 13 13 12 9 5 7 7 9 5 4 4 3 2 1 0 2 3 3 3 2 4 5 7
12 13 12 13 15 14 14 15 19 19 16 18 23 24 25 22 16 10 10 9 11 12 12 12 12 12 13 15 21 21 19 16 19 19 22 19 15 15 15 14 16 18 17 12 12 12 10 9 9 10 10 14 13 12 14 22 23 18 15 14 13 15 15 11 9 7 4 6 9 10 7 5 6 2 4 1 0 2 2 2 2 1 1 2 0
Wind_Direction
185 186 185 192 187 186 185 187 183 182 180 184 175 175 178 174 173 172 170 168 159 163 152 149 156 143 132 127 135 107 98 106 99 91 89 114 102 61 13 5 0 16 21 36 7 223 197 190 223 158 156 130 117 142 123 96 86 74 75 72 77 79 77 71 67 69 66 67 63 69 66 60 59 57 57 56 54 50 54 54 54 55 54 55 53
184 185 187 189 187 186 187 183 181 181 181 181 176 177 176 172 171 172 173 167 166 161 155 152 143 131 138 135 133 141 131 120 131 139 127 93 97 107 42 10 8 5 36 331 157 190 186 188 192 191 187 167 158 167 106 111 82 69 64 89 84 78 73 68 67 67 66 60 58 65 64 61 60 57 60 58 54 50 47 50 49 49 49 47 49
185 185 186 186 189 186 188 183 182 179 178 175 173 177 175 175 173 172 172 170 166 152 165 145 145 143 127 139 148 143 138 128 141 123 124 124 120 119 95 42 19 17 53 63 57 65 57 79 219 208 183 166 194 149 160 159 100 57 80 81 80 80 71 63 53 55 60 54 54 60 62 61 60 59 58 58 56 49 42 40 44 43 43 43 43
186 184 185 184 188 186 186 185 183 176 177 173 165 174 173 171 166 174 170 169 153 157 161 150 152 150 143 140 154 164 160 150 136 156 135 120 134 145 138 93 48 39 33 47 67 61 78 77 61 300 206 192 140 139 61 38 67 83 345 105 116 80 66 55 48 51 50 54 52 52 57 58 58 56 54 57 56 51 43 38 40 42 41 40 39
187 184 183 184 185 182 186 187 183 174 174 165 156 161 163 155 156 161 165 161 150 148 151 155 152 146 155 160 163 167 154 154 138 139 146 157 152 150 144 140 102 61 46 39 36 54 62 71 81 43 16 130 151 151 151 112 128 135 142 95 48 78 70 55 52 42 45 48 47 44 48 49 51 53 50 51 53 52 46 39 38 39 40 38 37
187 183 179 183 182 183 186 184 184 171 167 155 160 167 167 163 161 169 169 166 161 154 161 159 156 150 158 152 173 160 156 160 145 138 153 166 162 150 155 161 153 119 84 55 41 36 50 57 61 53 51 53 73 128 137 122 118 150 112 82 50 39 41 39 48 43 46 44 41 38 41 41 43 42 45 46 48 48 46 40 35 34 36 35 35
188 180 180 185 183 183 186 182 177 166 162 164 168 173 173 170 165 178 167 178 165 160 169 163 160 157 155 157 166 149 155 153 137 139 171 162 163 161 167 172 167 137 141 117 64 33 40 48 51 52 51 50 54 76 93 127 138 119 91 101 91 73 53 40 43 45 46 43 39 37 37 38 39 42 40 43 41 42 44 41 36 31 33 33 32
188 183 180 189 188 184 184 181 168 163 168 166 175 175 177 172 173 176 165 178 163 160 169 160 156 156 149 165 154 162 169 161 161 166 163 172 167 164 169 161 171 158 152 132 99 57 44 49 48 45 45 44 40 37 86 153 143 133 108 107 105 77 62 52 44 49 49 46 44 41 38 36 37 36 38 37 35 33 30 30 28 25 25 24 24
186 183 181 188 190 189 185 179 164 169 170 168 179 178 172 169 170 182 177 169 165 160 165 156 150 145 143 147 142 170 168 163 170 159 165 182 161 168 151 110 79 102 156 116 128 116 63 61 56 45 34 40 36 33 25 141 138 133 136 119 106 98 85 65 56 58 53 48 42 39 38 31 34 30 31 28 23 23 22 22 21 18 14 13 15
183 180 184 185 192 191 186 171 160 169 170 169 181 178 173 172 167 178 182 168 167 166 166 154 137 147 146 147 154 182 159 160 160 158 181 171 170 167 158 151 154 159 108 111 114 121 122 90 84 62 36 34 40 36 38 22 348 167 156 134 110 115 95 81 74 52 42 39 38 34 31 32 27 29 27 24 21 21 21 19 17 16 14 11 13
181 177 183 185 191 190 184 166 162 171 170 170 179 182 174 178 171 169 179 177 167 164 162 139 136 135 139 137 140 141 157 159 163 191 173 173 165 149 150 156 138 133 128 135 122 109 126 146 134 99 58 32 36 30 24 13 344 243 169 161 154 134 116 110 68 50 33 26 26 26 22 23 22 18 22 22 16 16 16 12 8 10 7 10 9
180 178 183 186 189 190 185 157 165 173 176 177 184 184 177 176 177 165 162 157 162 156 145 137 131 126 122 119 118 138 164 170 197 184 175 163 159 171 176 159 154 140 136 138 121 120 119 120 116 112 108 68 48 35 33 20 359 281 197 168 165 150 142 80 69 52 37 11 14 20 19 16 17 16 17 16 13 9 7 6 7 5 7 10 8
178 179 189 189 192 189 182 161 169 178 185 189 188 186 177 176 164 165 159 147 158 157 146 143 137 130 136 144 150 162 168 218 196 192 192 176 178 188 175 175 165 157 168 154 129 142 138 139 144 135 127 138 122 72 54 34 23 32 26 106 90 119 121 124 92 69 39 28 7 27 20 10 16 16 11 13 7 4 4 3 3 3 6 9 6
177 184 185 188 192 193 185 166 174 186 192 188 185 179 175 176 161 155 177 166 163 164 159 147 172 171 160 171 185 179 184 210 218 202 197 194 187 188 184 183 173 171 165 147 153 156 157 156 145 142 144 154 150 154 77 44 28 34 40 27 156 119 109 114 79 51 46 26 9 30 20 12 16 14 12 5 5 359 357 360 4 4 6 4 5
183 186 188 190 193 192 187 172 179 183 186 186 184 180 176 179 175 171 165 185 160 168 171 184 162 168 159 147 197 185 182 216 213 216 197 199 193 190 191 185 174 180 175 168 167 169 165 158 148 156 160 157 149 116 85 77 65 50 45 38 35 60 107 113 81 60 54 16 35 19 29 23 12 10 9 6 358 359 357 3 7 4 5 6 4
191 190 191 195 197 197 189 180 179 184 188 187 186 185 178 182 181 183 168 163 178 179 188 196 184 159 178 201 183 187 218 213 192 200 196 197 196 193 188 184 179 184 181 183 174 168 166 159 160 162 170 169 158 144 126 103 86 68 58 54 49 40 36 70 62 70 45 62 38 32 21 28 15 14 11 2 359 358 3 6 3 4 4 3 3
195 192 190 195 198 203 200 188 181 186 190 194 193 189 183 188 184 183 182 174 178 167 188 199 215 202 173 158 179 207 230 124 151 176 181 193 202 201 188 190 183 185 193 179 166 167 160 154 171 167 176 173 170 148 132 146 123 102 82 77 76 60 48 51 79 73 67 53 40 35 35 31 21 12 6 360 357 1 6 8 7 8 9 5 1
202 201 200 198 202 205 202 196 187 187 194 201 200 189 189 188 187 189 188 194 176 156 177 203 215 229 262 283 12 211 198 138 154 182 171 209 196 203 196 196 189 187 198 179 180 178 170 168 169 172 175 181 175 160 155 174 160 143 108 95 98 94 83 65 67 91 90 82 49 27 33 34 18 14 12 353 4 7 9 13 11 11 8 1 1
210 208 204 200 204 207 207 206 197 195 198 205 203 198 191 192 185 195 193 190 179 181 181 180 195 238 232 221 202 186 281 142 197 114 184 194 207 191 205 196 198 198 203 196 187 189 169 169 175 169 180 181 180 172 167 110 89 97 113 114 108 109 107 103 83 79 85 90 95 76 89 44 29 26 4 354 12 1 358 11 7 3 360 358 360
217 216 214 208 204 207 206 204 204 204 198 210 210 205 187 193 195 198 194 196 193 193 184 177 180 205 206 191 205 269 294 296 280 194 164 159 192 199 203 196 200 208 210 206 199 193 172 177 170 175 179 184 180 185 147 140 141 137 140 135 119 116 118 122 124 117 113 99 99 89 117 101 57 31 6 16 7 4 5 5 6 353 359 1 359
219 221 218 218 210 213 212 209 208 209 203 207 210 209 201 185 189 194 201 200 201 200 188 187 189 194 176 203 203 206 216 237 257 286 214 156 174 179 188 182 206 215 212 211 204 194 180 174 171 175 181 180 186 184 163 164 167 151 146 145 129 115 117 125 135 141 131 129 115 106 67 78 54 30 25 13 4 15 7 11 356 356 2 356 357
219 221 220 219 218 214 217 215 213 212 210 208 210 213 210 202 197 201 205 207 207 206 205 194 196 197 192 184 192 199 211 211 226 224 259 247 188 186 175 173 191 216 198 205 200 189 175 169 168 182 181 179 188 180 179 174 164 145 152 150 135 118 111 125 136 145 150 146 137 137 72 67 51 22 6 344 9 7 18 2 348 4 354 348 352
218 219 222 220 222 220 219 220 219 217 215 214 213 208 201 196 195 202 206 209 210 209 212 210 196 202 197 196 195 195 198 200 205 205 205 207 228 175 179 183 191 174 197 195 189 184 175 170 175 180 186 180 184 181 182 180 146 139 149 155 146 125 115 117 134 150 161 159 160 151 142 83 42 356 329 318 360 11 352 343 354 355 346 343 344
228 226 222 221 219 221 222 225 223 221 220 214 212 213 211 200 192 192 201 209 215 212 214 217 204 202 207 204 206 204 208 211 208 203 200 215 205 205 173 162 192 198 150 177 181 183 181 182 182 181 185 184 180 179 179 161 134 138 153 159 149 129 107 102 141 153 180 177 185 211 268 48 42 318 315 297 305 332 328 328 345 341 337 333 332
248 234 227 217 214 217 220 219 222 222 222 219 217 215 218 211 202 203 206 206 210 211 211 212 211 206 204 209 209 205 212 214 213 207 209 210 204 215 174 163 165 151 158 162 182 189 187 191 184 184 183 186 180 181 177 166 154 167 172 164 165 139 125 127 144 174 186 203 229 251 247 289 291 286 291 285 303 308 305 306 312 323 324 330 329
285 262 248 221 216 219 220 223 224 226 221 222 218 216 216 221 208 211 210 212 211 215 220 218 219 219 212 208 210 210 214 212 214 213 207 199 209 206 150 173 165 145 139 183 178 166 209 197 188 185 183 185 184 181 177 175 152 170 184 170 171 162 145 151 176 185 201 217 233 237 229 234 259 267 270 278 303 306 303 298 297 311 316 313 313
300 296 276 245 222 221 222 225 225 224 224 223 219 221 216 220 218 218 217 215 219 217 221 219 221 220 219 217 212 215 213 211 211 219 211 207 207 196 158 151 155 143 165 188 187 205 188 184 183 188 185 184 181 184 176 185 152 164 169 187 165 166 149 167 199 194 206 233 237 240 245 239 245 258 246 266 285 287 293 294 289 296 307 312 323
306 302 294 267 239 228 229 228 227 226 223 223 218 217 214 220 227 223 223 216 221 221 224 222 225 222 222 224 222 222 217 214 213 217 213 207 208 203 180 180 181 193 173 185 198 221 194 161 191 194 184 185 181 180 179 157 135 161 173 197 176 162 163 170 196 212 215 227 237 238 241 246 242 242 244 244 255 273 273 278 286 296 300 308 316
307 306 298 284 261 241 237 237 233 229 228 225 222 221 220 224 226 225 226 219 220 223 222 224 227 224 228 225 225 227 221 221 221 218 216 215 212 210 202 200 193 206 188 201 204 193 200 181 179 197 186 185 178 176 172 174 153 158 181 197 178 149 159 168 191 221 229 229 233 235 235 242 243 239 243 249 256 267 278 281 295 303 309 319 321
308 299 292 288 283 265 249 243 242 239 232 229 226 223 221 225 224 228 230 222 225 228 224 224 227 225 229 228 227 231 226 220 223 219 220 219 215 215 217 210 201 215 204 202 214 186 185 191 184 166 185 183 176 172 168 179 151 167 180 185 160 167 164 167 193 227 229 229 231 230 230 236 241 241 244 254 266 277 290 299 305 312 315 317 320
302 297 292 286 279 270 258 249 242 237 235 233 228 226 220 226 225 230 227 228 233 232 228 222 226 223 226 227 226 229 226 226 225 222 222 219 219 218 220 212 214 217 220 202 229 191 166 181 194 166 171 176 172 161 162 172 154 170 173 167 170 150 136 176 212 232 232 227 231 233 234 240 240 244 246 257 274 286 292 300 306 308 311 310 305
306 301 295 289 286 282 272 260 252 244 238 232 227 227 226 228 229 229 225 220 230 233 233 226 226 225 228 228 226 225 222 225 227 222 219 219 217 218 218 216 218 217 212 220 222 195 155 168 173 152 164 166 166 163 166 150 157 172 173 168 153 128 152 206 228 227 224 225 230 232 235 237 239 241 245 254 267 278 289 293 297 301 302 294 288
320 314 306 302 296 286 276 267 259 252 246 242 232 226 227 231 231 232 231 225 226 230 232 233 226 227 231 231 231 229 222 223 226 222 223 219 216 222 219 216 219 213 207 214 220 184 13 103 148 153 161 156 168 172 164 157 150 175 183 172 170 162 170 210 206 207 213 221 227 233 236 240 241 242 243 250 259 271 281 285 286 282 282 282 283
330 320 317 311 305 299 290 280 270 256 250 245 239 234 234 232 230 228 233 235 235 233 229 232 227 223 227 233 236 232 223 226 227 224 221 218 216 217 218 214 217 215 205 207 217 190 172 144 135 130 154 171 166 174 176 170 162 162 175 179 180 169 184 187 214 203 205 210 220 228 235 239 242 242 239 244 252 255 264 269 269 270 273 278 283
338 337 324 319 311 304 298 293 285 277 266 257 246 238 237 236 236 233 229 232 235 237 235 234 231 227 228 232 235 230 224 227 227 226 220 219 217 218 220 214 218 216 206 208 206 212 170 180 156 157 168 177 183 179 180 174 159 159 166 182 180 179 183 198 204 215 206 207 214 221 227 234 238 233 230 236 237 242 252 259 267 273 280 284 290
338 335 333 325 319 310 304 297 290 284 278 268 260 250 241 239 241 241 237 233 234 237 239 239 236 233 233 236 236 228 223 229 230 228 226 220 216 217 218 215 216 215 205 203 211 213 174 166 177 170 174 168 185 166 172 161 160 163 167 159 164 178 183 198 212 216 212 209 212 218 226 233 234 229 230 230 232 237 244 256 264 274 280 285 289
330 328 326 329 324 318 308 302 298 292 286 280 273 264 254 246 245 244 243 242 239 239 240 241 239 236 236 236 239 231 225 231 233 228 225 222 221 217 216 215 213 211 200 201 207 207 185 178 160 167 158 167 166 158 167 163 159 155 154 168 175 181 192 193 193 212 221 216 216 221 228 234 236 235 232 230 233 237 246 254 265 272 276 280 283
323 323 319 320 318 313 308 300 296 296 294 288 281 276 271 264 256 248 246 246 248 246 244 243 243 240 240 240 240 233 229 229 235 232 228 225 224 223 222 218 213 205 204 203 200 205 202 184 164 154 168 165 168 172 175 173 165 162 167 174 178 184 180 192 202 196 197 203 203 221 232 237 238 235 231 232 234 241 249 258 263 266 267 269 273
313 311 312 311 309 305 301 295 290 288 290 290 289 283 277 273 269 261 253 252 252 250 249 249 245 245 243 243 242 236 234 233 236 234 231 231 226 226 223 220 212 204 204 202 196 199 200 177 173 167 162 175 170 164 171 176 180 177 169 166 187 183 183 192 203 192 185 198 211 215 214 213 220 220 227 229 235 243 252 256 256 255 257 260 265
304 305 305 303 300 298 294 293 286 280 276 276 276 279 279 278 273 268 263 259 257 254 254 251 249 245 244 244 242 239 236 237 238 239 233 233 226 229 227 221 215 207 207 203 195 198 200 192 180 171 168 164 168 148 141 161 172 191 195 180 180 177 189 191 200 187 183 184 200 203 218 220 224 223 222 231 239 244 247 249 248 250 251 253 255
303 301 295 290 293 292 286 283 285 280 272 263 263 265 269 271 273 271 266 262 261 262 259 255 252 251 249 245 243 242 238 240 238 236 233 229 229 233 230 219 215 210 211 205 202 198 201 194 186 173 165 171 177 163 166 179 192 192 177 178 190 182 166 173 192 198 181 184 194 192 199 202 210 212 207 215 227 233 234 233 241 243 243 247 244
304 305 305 298 288 281 284 281 275 274 267 261 249 251 253 258 264 266 267 266 264 265 264 262 258 253 251 250 247 243 240 238 239 238 236 233 231 230 230 214 212 213 211 208 205 204 200 200 197 182 184 191 184 183 181 188 180 158 167 177 180 179 157 183 182 193 183 178 186 201 198 188 196 204 201 210 220 209 197 209 204 210 220 233 248
309 309 304 301 299 294 289 283 284 279 268 262 258 252 248 253 257 259 260 261 260 259 260 261 260 257 256 254 252 246 241 238 237 236 235 234 233 233 232 223 215 212 210 212 213 205 204 207 202 193 200 198 192 183 181 170 176 179 179 179 176 165 174 174 194 179 188 177 196 195 202 181 172 203 211 206 204 194 198 203 215 219 237 250 257
305 307 306 302 299 293 290 287 280 274 276 272 266 268 266 256 253 255 258 258 257 255 255 256 258 259 258 256 252 252 245 241 238 234 232 231 232 232 231 228 224 221 217 212 211 209 206 211 207 206 201 202 189 178 175 170 175 178 180 180 182 183 180 193 195 190 178 172 184 191 199 168 176 206 218 205 194 189 197 205 216 231 247 258 267
302 302 300 301 301 298 293 286 287 289 285 276 278 277 272 267 263 259 258 255 253 254 253 254 255 256 257 256 257 252 250 243 236 233 233 231 229 230 230 229 227 223 222 223 220 215 205 211 211 214 208 198 188 193 185 175 172 178 174 178 185 192 193 196 197 145 158 168 171 186 188 180 173 202 215 203 185 185 195 217 228 243 255 267 275
291 291 294 295 293 290 290 294 293 288 282 285 280 276 275 272 270 268 259 256 254 254 254 252 253 254 253 254 256 255 252 244 235 235 234 231 226 221 225 226 227 228 225 224 225 223 217 215 215 219 213 196 201 196 183 173 173 180 176 185 182 184 190 194 168 141 149 168 180 166 169 193 175 191 217 208 170 179 178 208 227 244 259 267 275
287 290 292 293 291 290 288 286 286 286 283 282 283 276 274 276 276 274 266 262 257 253 253 252 251 252 253 253 252 254 251 245 244 238 234 230 223 218 217 220 223 223 221 220 221 221 220 222 228 231 219 200 208 191 179 181 187 186 184 182 177 176 150 97 80 123 136 167 172 167 185 162 176 182 207 193 172 175 195 223 240 253 267 272 273
277 278 281 282 287 288 286 283 282 281 281 278 276 277 276 275 278 273 267 264 262 258 256 254 251 250 251 250 253 252 248 244 239 237 235 227 216 216 218 221 222 222 225 221 216 213 215 217 219 218 208 193 178 173 174 171 170 148 117 107 110 131 141 152 166 163 163 175 175 185 161 177 187 168 182 147 172 195 201 181 253 270 275 275 271
284 282 282 283 281 281 282 281 279 278 278 276 273 271 271 272 274 270 271 269 265 263 260 258 254 251 249 245 246 250 248 245 238 228 218 218 221 217 221 222 223 221 226 221 211 208 209 195 203 204 190 186 179 172 171 168 164 150 136 142 168 160 157 174 180 170 190 175 181 190 178 166 190 160 174 198 197 243 241 245 244 274 279 277 273
286 284 284 283 281 278 277 278 277 280 280 278 276 272 269 268 261 259 262 264 264 264 266 260 256 254 250 245 241 244 245 243 240 220 210 200 218 219 222 223 223 226 226 211 197 200 180 167 169 179 176 181 182 177 176 171 161 157 162 178 174 160 182 185 178 181 163 174 186 172 160 186 143 156 136 213 113 242 224 242 258 271 280 278 270
275 281 282 281 281 280 278 276 278 277 276 277 277 275 270 265 259 254 255 255 256 258 262 263 260 254 255 247 239 238 241 241 235 215 210 199 216 216 220 221 224 227 221 195 191 189 185 185 185 173 181 183 180 175 177 172 166 172 182 175 163 173 180 177 165 129 154 219 185 173 149 180 130 217 135 124 266 241 170 209 232 182 174 133 141